Hurghada, Egypt

8:01 PM EET on September 29, 2016 (GMT +0200)
Hurghada International

Weather History for HEGN - June, 2012

Change the Weather History Date:

Monday, June 18, 2012

  Actual Average Record
Temperature  
Mean Temperature 94 °F -  
Max Temperature 103 °F 94 °F 103 °F (2012)
Min Temperature 86 °F 78 °F 75 °F (2006)
Cooling Degree Days 30    
Growing Degree Days 44 (Base 50)    
Moisture  
Dew Point 60 °F    
Average Humidity 31    
Maximum Humidity 46    
Minimum Humidity 15    
Precipitation  
Precipitation 0.00 in - - ()
Sea Level Pressure  
Sea Level Pressure 29.64 in    
Wind  
Wind Speed 14 mph ()    
Max Wind Speed 29 mph    
Max Gust Speed -    
Visibility 5.4 miles    
Events      
Averages and records for this station are not official NWS values.
T = Trace of Precipitation, MM = Missing Value Source: Averaged Metar Reports

Daily Weather History Graph

Daily Weather History Graph

Search for Another Location

Airport or City:

Trip Planner

Search our weather history database for the weather conditions in past years. The results will help you decide how hot, cold, wet, or windy it might be!

Date:

Astronomy

Jun. 18, 2012 Rise Set
Actual Time 4:50 AM EET 6:41 PM EET
Civil Twilight 4:23 AM EET 7:08 PM EET
Nautical Twilight 3:51 AM EET 7:40 PM EET
Astronomical Twilight 3:18 AM EET 8:13 PM EET
Moon 3:45 AM EET (6/18) 5:46 PM EET (6/18)
Length of Visible Light 14h 44m
Length of Day
13h 51m
Waning Crescent, 1% of the Moon is Illuminated
Jun 18
Waning Crescent
Jun 19
New
Jun 27
First Quarter
Jul 3
Full
Jul 11
Last Quarter

Hourly Weather History & Observations

Time (EET) Temp. Heat Index Dew Point Humidity Pressure Visibility Wind Dir Wind Speed Gust Speed Precip Events Conditions
12:00 AM 93.2 °F 94.1 °F 62.6 °F 36% 29.65 in - NW 19.6 mph - N/A   Clear
1:00 AM 91.4 °F 90.7 °F 59.0 °F 34% 29.65 in - WNW 16.1 mph - N/A   Clear
2:00 AM 90 °F - 62 °F 29% 29.65 in 6 mi NW 16.1 mph - -  
2:00 AM 89.6 °F 90.1 °F 62.6 °F 40% 29.62 in - NW 16.1 mph - N/A   Clear
3:00 AM 89.6 °F 92.2 °F 66.2 °F 46% 29.65 in - North 12.7 mph - N/A   Clear
4:00 AM 89.6 °F 90.1 °F 62.6 °F 40% 29.65 in - NNW 17.3 mph - N/A   Clear
5:00 AM 87.8 °F 88.5 °F 62.6 °F 43% 29.68 in - NW 8.1 mph - N/A   Clear
6:00 AM 87.8 °F 87.6 °F 60.8 °F 40% 29.68 in - NW 10.4 mph - N/A   Clear
7:00 AM 89.6 °F 90.1 °F 62.6 °F 40% 29.68 in - NNW 11.5 mph - N/A   Clear
8:00 AM 92 °F - 65 °F 32% 29.70 in 6 mi NNW 20.7 mph - -  
11:00 AM 100.4 °F 104.9 °F 66.2 °F 33% 29.68 in 5.0 mi North 28.8 mph - N/A   Unknown
1:00 PM 102.2 °F 104.2 °F 62.6 °F 27% 29.62 in 5.0 mi North 21.9 mph - N/A   Unknown
2:00 PM 101 °F - 60 °F 17% 29.64 in 5 mi North 20.7 mph - -   Blowing Sand
2:00 PM 100.4 °F 101.3 °F 60.8 °F 27% 29.62 in 5.0 mi North 20.7 mph - N/A   Unknown
3:00 PM 102.2 °F 103.6 °F 60.8 °F 26% 29.59 in - North 21.9 mph - N/A   Clear
4:00 PM 100.4 °F 101.3 °F 60.8 °F 27% 29.59 in - North 18.4 mph - N/A   Clear
5:00 PM 100.4 °F 101.3 °F 60.8 °F 27% 29.59 in - North 18.4 mph - N/A   Clear
6:00 PM 96.8 °F 97.1 °F 60.8 °F 30% 29.59 in - North 16.1 mph - N/A   Clear
7:00 PM 96.8 °F 98.0 °F 62.6 °F 32% 29.62 in - North 8.1 mph - N/A   Clear
8:00 PM 97 °F - 53 °F 15% 29.64 in 6 mi NW 8.1 mph - -  
8:00 PM 96.8 °F 94.4 °F 53.6 °F 23% 29.62 in - North 8.1 mph - N/A   Clear
9:00 PM 98.6 °F - 46.4 °F 17% 29.65 in - NW 11.5 mph - N/A   Clear
10:00 PM 95.0 °F - 48.2 °F 20% 29.65 in - WNW 13.8 mph - N/A   Clear
11:00 PM 91.4 °F 93.2 °F 64.4 °F 41% 29.65 in - North 8.1 mph - N/A   Clear